Location: Albany
(35.0170°S, 117.8920°E)
Time: 17:36:27
(UTC+08:00)

Transit 2A - Pass Details

Date: 24 January 2021
Orbit: 601 x 958 km, 66.7° (Epoch: 02 March)

Event Time Altitude Azimuth Distance (km) Brightness Sun altitude
Rises 16:15:29 0° 311° (NW) 2,953 9.7 36.1°
Reaches altitude 10° 16:17:50 10° 301° (WNW) 2,093 9.2 35.6°
Maximum altitude 16:22:10 35° 236° (SW) 1,158 8.3 34.8°
Drops below altitude 10° 16:26:57 10° 170° (S) 2,315 8.5 33.8°
Sets 16:29:42 0° 161° (SSE) 3,315 9.1 33.2°
